Home   Weather   Monheim am Rhein   Past weeks

Flag for Germany Past Weather in Monheim am Rhein, North Rhine-Westphalia, Germany — Yesterday and Last 2 Weeks

Now
52 °F

Partly sunny.


Feels Like: 49 °F
Forecast: 49 / 52 °F
Wind: 8 mph from West

Location: Duesseldorf

Current Time: Feb 21, 2017 at 5:51:40 pm

Latest Report: Feb 21, 2017 at 5:20 pm


Visibility: N/A

Pressure: 29.98 "Hg

Humidity: 67%

Dew Point: 41 °F

Location of Monheim am RheinLocation

Past Weather in Monheim am Rhein — Graph

°F

Monheim am Rhein Temperature Yesterday

Maximum temperature yesterday: 52 °F (at 10:20 pm)
Minimum temperature yesterday: 43 °F (at 12:20 am)
Average temperature yesterday: 47 °F

High & Low Weather Summary for the Past Weeks

 TemperatureHumidityPressure
High61 °F (Feb 15, 3:50 pm)100% (Feb 11, 7:50 pm)30.51 "Hg (Feb 11, 7:50 pm)
Low27 °F (Feb 13, 5:50 am)38% (Feb 14, 3:50 pm)29.92 "Hg (Feb 21, 4:20 am)
Average41 °F78%30.24 "Hg
* Reported Feb 6 4:20 pm — Feb 21 4:50 pm, Monheim am Rhein, Weather by CustomWeather, © 2017

Note: Actual official high and low records may vary slightly from our data, if they occured in-between our weather recording intervals... More about our weather records

Advertising

Monheim am Rhein Weather History for the Previous 24 Hours

Scroll right to see more
 ConditionsComfort  
Time TempWeatherWind HumidityBarometerVisibility
4:50 pm
Tue, Feb 21
54 °FPartly sunny.8 mph58%29.98 "HgN/A
4:20 pm54 °FPartly sunny.13 mph58%29.98 "HgN/A
3:50 pm54 °FPartly sunny.12 mph58%29.98 "HgN/A
3:20 pm54 °FPartly sunny.13 mph58%29.98 "HgN/A
2:50 pm54 °FPartly sunny.14 mph58%29.98 "HgN/A
2:20 pm54 °FPartly sunny.13 mph58%29.98 "HgN/A
1:50 pm52 °FScattered clouds.14 mph67%29.98 "HgN/A
1:20 pm54 °FScattered clouds.15 mph67%29.98 "HgN/A
12:50 pm54 °FScattered clouds.13 mph72%29.98 "HgN/A
12:20 pm50 °FBroken clouds.8 mph88%30.01 "HgN/A
11:50 am50 °FBroken clouds.8 mph88%29.98 "HgN/A
11:20 am50 °FScattered showers. Broken clouds.6 mph88%30.01 "HgN/A
10:50 am50 °FSprinkles. Broken clouds.7 mph88%29.98 "HgN/A
10:20 am50 °FBroken clouds.9 mph88%29.98 "HgN/A
9:50 am50 °FBroken clouds.9 mph88%29.98 "HgN/A
9:20 am50 °FLight rain. Broken clouds.8 mph88%29.98 "HgN/A
8:50 am48 °FPartly sunny.9 mph94%29.98 "HgN/A
8:20 am48 °FBroken clouds.6 mph87%29.98 "HgN/A
7:50 am48 °FBroken clouds.6 mph87%29.95 "HgN/A
7:20 am48 °FPartly cloudy.8 mph87%29.95 "HgN/A
6:50 am48 °FPassing clouds.9 mph87%29.95 "HgN/A
6:20 am50 °FPartly cloudy.9 mph88%29.95 "HgN/A
5:50 am50 °FPartly cloudy.8 mph88%29.95 "HgN/A
5:20 am50 °FPartly cloudy.8 mph88%29.95 "HgN/A
4:50 am50 °FPartly cloudy.8 mph88%29.92 "HgN/A
4:20 am50 °FPartly cloudy.9 mph94%29.92 "Hg6 mi
3:50 am50 °FPartly cloudy.12 mph94%29.95 "Hg3 mi
3:20 am50 °FPartly cloudy.12 mph94%29.95 "Hg2 mi
2:50 am50 °FPartly cloudy.10 mph94%29.95 "Hg2 mi
2:20 am50 °FPartly cloudy.14 mph100%29.95 "Hg4 mi
1:50 am52 °FPartly cloudy.12 mph94%29.95 "Hg2 mi
1:20 am52 °FPartly cloudy.12 mph94%29.95 "Hg2 mi
12:50 am52 °FPartly cloudy.13 mph94%29.95 "Hg2 mi
12:20 am52 °FPartly cloudy.14 mph94%29.95 "Hg2 mi
11:50 pm
Mon, Feb 20
52 °FPartly cloudy.15 mph94%29.95 "Hg3 mi
11:20 pm52 °FPartly cloudy.13 mph94%29.95 "Hg3 mi
10:50 pm52 °FPartly cloudy.13 mph94%29.95 "Hg2 mi
10:20 pm52 °FDrizzle. Low clouds.14 mph94%29.95 "Hg2 mi
9:50 pm50 °FDrizzle. Mostly cloudy.13 mph94%29.95 "Hg2 mi
9:20 pm50 °FLow clouds.14 mph94%29.95 "Hg5 mi
8:50 pm50 °FLow clouds.15 mph94%29.95 "Hg5 mi
8:20 pm50 °FLow clouds.15 mph94%29.98 "Hg5 mi
7:50 pm50 °FLow clouds.14 mph94%29.98 "Hg5 mi
7:20 pm50 °FDrizzle. Low clouds.15 mph94%29.98 "Hg5 mi
6:50 pm50 °FDrizzle. Mostly cloudy.13 mph94%29.98 "Hg6 mi
6:20 pm50 °FDrizzle. Mostly cloudy.12 mph94%29.98 "Hg3 mi
5:50 pm50 °FDrizzle. Mostly cloudy.12 mph94%29.98 "Hg2 mi
5:20 pm48 °FDrizzle. Mostly cloudy.14 mph100%29.98 "Hg2 mi
Weather by CustomWeather, © 2017

See weather overviewHow to use our weather pages